Location: Buckland
(65.9785°N, 161.1281°W)
Time: 06:07:18
(UTC+00:00)

Transit 2A Rocket - Pass Details

Date: 27 November 2020
Orbit: 592 x 910 km, 66.7° (Epoch: 21 January)

Event Time Altitude Azimuth Distance (km) Brightness Sun altitude
Exits shadow 18:21:39 - 283° (WNW) 2,433 7.0 -9.1°
Reaches altitude 10° 18:21:46 10° 283° (WNW) 2,387 7.0 -9.1°
Maximum altitude 18:27:15 89° 9° (N) 757 5.0 -8.6°
Drops below altitude 10° 18:32:13 10° 105° (ESE) 2,167 8.7 -8.2°
Sets 18:34:27 0° 105° (ESE) 3,036 9.6 -8.0°
